This is the latest recevied weather packets stored in our database for station/object W8DRH-13. If no packets are shown the sender has not sent any weather packets the latest 10 day(s).
| Time | Temp. | Humidity | Pressure | Rain* | Wind** | Luminosity | Snow |
|---|---|---|---|---|---|---|---|
| 1777836799 | 16.11° C | 41% | 1011.9 hPa | 0 mm | - | 270 W/m² | - |
| 1777836495 | 15.56° C | 42% | 1012 hPa | 0 mm | - | 631 W/m² | - |
| 1777835887 | 15.56° C | 44% | 1012 hPa | 0 mm | - | 269 W/m² | - |
| 1777835584 | 15.56° C | 42% | 1012.3 hPa | 0 mm | - | 770 W/m² | - |
| 1777835281 | 15.56° C | 41% | 1012.3 hPa | 0 mm | - | 799 W/m² | - |
| 1777834978 | 15° C | 43% | 1012.4 hPa | 0 mm | - | 780 W/m² | - |
| 1777834675 | 15.56° C | 43% | 1012.6 hPa | 0 mm | - | 270 W/m² | - |
| 1777834065 | 15° C | 44% | 1012.5 hPa | 0 mm | - | 617 W/m² | - |
| 1777833762 | 15° C | 43% | 1012.6 hPa | 0 mm | - | 689 W/m² | - |
| 1777833155 | 15° C | 43% | 1012.8 hPa | 0 mm | - | 549 W/m² | - |
| 1777832853 | 15° C | 45% | 1012.7 hPa | 0 mm | - | 256 W/m² | - |
| 1777832552 | 15° C | 42% | 1013 hPa | 0 mm | - | 347 W/m² | - |
| 1777831945 | 15° C | 42% | 1013.3 hPa | 0 mm | - | 735 W/m² | - |
| 1777831641 | 15° C | 44% | 1013.1 hPa | 0 mm | - | 259 W/m² | - |
| 1777831340 | 15° C | 43% | 1013.2 hPa | 0 mm | - | 707 W/m² | - |
| 1777830430 | 14.44° C | 43% | 1013.3 hPa | 0 mm | - | 701 W/m² | - |
| 1777829822 | 14.44° C | 46% | 1013.4 hPa | 0 mm | - | 713 W/m² | - |
| 1777829519 | 15° C | 44% | 1013.5 hPa | 0 mm | - | 747 W/m² | - |
| 1777828913 | 14.44° C | 41% | 1013.6 hPa | 0 mm | - | 728 W/m² | - |
| 1777826184 | 13.89° C | 48% | 1014.1 hPa | 0 mm | - | 723 W/m² | - |
| 1777825882 | 13.89° C | 50% | 1014 hPa | 0 mm | - | 729 W/m² | - |
| 1777825579 | 13.33° C | 49% | 1014.2 hPa | 0 mm | - | 730 W/m² | - |
| 1777824973 | 13.33° C | 52% | 1014.4 hPa | 0 mm | - | 720 W/m² | - |
| 1777824669 | 13.33° C | 49% | 1014.4 hPa | 0 mm | - | 727 W/m² | - |
| 1777823758 | 13.33° C | 49% | 1014.8 hPa | 0 mm | - | 738 W/m² | - |
* Rain latest hour (hover to see other rain measurements)
** Current wind speed in m/s (hover to see current wind gust speed)